Погода в Сорочинске

Погода в Сорочинске : погода сейчас, прогноз погоды и архив. Всё, что Вы хотите узнать о погоде в Сорочинске!

Хотите узнать прогноз погоды в Сорочинске? Тогда Вам сюда: Погода в Сорочинске

Поиск расширенной информации на нашем сайте:

Другие новости

Новости СМИ2

Главная страница сайта

Новости сайта

02.10.2013

Напоминаем, что на нашем новом сайте вы можете получить высокодетализированные прогнозы погоды по пунктам России, СНГ и мира (включающие важные для авиации метеовеличины, такие как направление и скорость ветра, видимость, явления погоды, количество и форма облачности, нижняя и верхняя граница облачности), а также ознакомиться с разнообразными материалами по авиационной метеорологии и подборкой полезных ссылок на эту тему.

Сайт Метеоцентр.Азия посвящён разработке технологий оптимизации авиаметеорологического обслуживания, включая проектирование и перспективное создание нескольких автоматизированных авиаметеорологических систем:
- система выпуска высокодетальных прогностических карт явлений погоды для нижнего воздушного пространства по России и ближнему зарубежью;
- система верификации прогнозов TAF (выпускаемых синоптиками официальных АМСГ РФ и ближнего зарубежья) и AUTOTAF (выпускаемых сайтом Метеоцентр.Азия) - выявление ошибок, онлайн-сопоставление с фактической погодой METAR, автоматическое внесение коррективов в прогнозы при резком отклонении фактической погоды от прогноза, подсчёт оправдываемости прогнозов по элементам и в целом;
- система обработки, анализа и отображения авиаметеорологической информации для применения провайдерами метеорологической информации.


Погода в Сорочинске - сегодня

Время (UTC), дата Ветер
(°,м/с) 
Видим.   Явления Облачность Т
(°С)
Тd
(°С)
f(%) Тe
(°С)
Pmin
(гПа)
dP
(гПа)
Po
(мм)
O2
(г/м3)
Тmin Tmax R s Состояние
почвы
00 25.05.17 тихо ()   20000 м    ясно 
+8.7 +2.1 63 +9  1019.3  0.1  753  294           
03 25.05.17 180 (Ю) 20000 м    ясно 
+14.8 +5 52 +16  1019.5  0.5  754  287  +7.8        сухая 
06 25.05.17 250 (З) 20000 м    ясно 
+22.1 +3.7 30 +22  1019.2  754  280           
09 25.05.17 190 (Ю) 20000 м    3/3 1500 м 
[Cu hum]
+24 +2.9 25 +24  1018.7  -0.4  753  279           
12 25.05.17 170 (Ю) 20000 м    3/3 1500 м 
[Cu hum]
+24.2 +2.9 25 +24  1017.7  -0.9  752  278           
15 25.05.17 190 (Ю) 20000 м    4/0 верхняя 
[Ci fib]
+23 +3.7 28 +23  1017.3  -0.5  752  279    +24.5       
18 25.05.17 200 (Ю) 20000 м    4/0 верхняя 
[Ci fib]
+16.2 +4.6 46 +17  1018.3  0.7  753  286           
21 25.05.17 110 (В) 20000 м    ясно 
+11.7 +4.6 62 +13  1018.8  0.3  753  290           
00 26.05.17 120 (ЮВ) 20000 м    ясно 
+9.4 +5.6 77 +10  1018.8  -0.2  753  292           
03 26.05.17 110 (В) 20000 м    10/0 верхняя 
[Ci]
+13.5 +5.7 59 +15  1018.4  0.1  753  288  +9        сухая 
06 26.05.17 110 (В) 20000 м    10/0 верхняя 
[Ci sp]
+21.4 +4.8 34 +21  1017.2  -0.8  752  280           
09 26.05.17 170 (Ю) 20000 м    10/6 600 м кучево-дожд., верхняя 
[Cb cap|Ci sp]
+22.6 +4.3 30 +23  1015.6  -1.6  751  279           
12 26.05.17 180 (Ю) 2{10}  10 км  слаб. ливневой дождь  10/10 720 м кучево-дожд. 
[Cb cap]
+17.4 +10.2 63 +19  1015.8  751  283           
15 26.05.17 090 (В) 20000 м  {ливн. осадки}  10/10 1230 м 
[Sc]
+16.2 +8.8 61 +17  1013.6  -2.2  749  283    +23.2     
21 26.05.17 050 (СВ) 20000 м    10/10 960 м 
[Sc]
+13.6 +9.9 78 +16  1010.8  -1.8  747  285           
03 27.05.17 300 (СЗ) 10 км  слаб. ливневой дождь  10/10 930 м кучево-дожд. 
[Cb cap]
+12.5 +10.6 88 +16  1009.2  -0.4  746  285  +12.1    0.0    влажная 
09 27.05.17 320 (СЗ) 20000 м    8/6 600 м кучево-дожд., средняя 
[Cb cap|Ac trans]
+19.1 +9.7 54 +21  1007.8  -0.7  745  279           
12 27.05.17 320 (СЗ) 20000 м    8/5 1000 м средняя 
[Cu hum|Ac trans]
+21.6 +9.2 45 +22  1006.3  -1.4  744  276           
21 27.05.17 270 (З) 1{11}  20000 м    3/3 1000 м 
[Sc]
+12.5 +10.4 87 +16  1005.5  -0.9  743  284           
00 28.05.17 270 (З) 20000 м    6/6 600 м 
[Sc]
+12.4 +10.7 89 +14  1005.8  0.3  743  284           
03 28.05.17 340 (С) 10 км  слаб. ливневой дождь  10/10 840 м кучево-дожд. 
[Cb cap]
+11.2 +9.6 90 +11  1007.4  1.4  744  286  +11.2    0.0    влажная 
09 28.05.17 360 (С) 5{11}  20000 м    10/0 верхняя 
[Ci ing]
+13.7 -0.4 38 +13  1009  0.4  746  286           
18 28.05.17 090 (В) 20000 м    8/6 600 м кучево-дожд., средняя 
[Cb cap|Ac trans]
+10.8 -0.4 46 +11  1006.7  -0.8  744  288           
00 29.05.17 040 (СВ) 7-11{15}  10 км  слаб. ливневой дождь  10/10 700 м кучево-дожд. 
[Cb cap]
+3.6 +0.9 82 1008  1.8  744  296           
03 29.05.17 030 (СВ) 4{12}  10 км  в посл. час ливневой дождь  10/10 720 м кучево-дожд. 
[Cb cap]
+1.6 +0.4 92 -1  1010.8  2.7  746  299  +1.2      влажная 
Время (UTC), дата Ветер
(°,м/с) 
Видим.   Явления Облачность Т
(°С)
Тd
(°С)
f(%) Тe
(°С)
Pmin
(гПа)
dP
(гПа)
Po
(мм)
O2
(г/м3)
Тmin Tmax R s Состояние
почвы

Для получения пояснительной информации подведите курсор к названию столбца.

ПОГОДА в Сорочинске - архив

Всё, что Вы хотите узнать о погоде в Сорочинске - удобно и подробно!

Выберите нужную дату (начиная с 1 января 2015* года) и нажмите кнопку "Найти".
Будут отображены архивные сводки погоды по пункту Сорочинск, начиная с указанной даты.


Отображать данные в формате CSV (для использования в таблицах Excel)


Внимание! Наш архив погоды предназначен исключительно для личного некоммерческого использования в познавательных целях. Если Вам необходимы официальные справки о состоянии погоды (для производственных, юридических, коммерческих и т.п. целей), обращайтесь в органы Росгидромета.

*Примечание: данная дата относится к архиву по метеостанциям СССР (Россия, СНГ, Балтия).
Архив по метеостанциям Зарубежной Европы и Азии (кроме Китая) хранится 10 дней, по другим регионам земного шара (Китай, Африка, Америка, Австралия, Океания) - 1 день.

Сорочинск - район местоположения метеостанции


Название, широта, долгота, высота метеостанции:
Сорочинск 52.4°ш. 53.1°д. 123 м над ур. моря [Российская Федерация]

Дополнительная информация

В oтличие oт бoльшинства пoгoдных сайтoв мы публикуем пoдрoбную метеoинфoрмацию в детальнoм прoфессиoнальнoм фoрмате.

Характеристики температуры и влажнoсти вoздуха измеряются на высoте 2 м в тени вдали oт зданий и деревьев.
Скoрoсть ветра измеряется на высoте 10 м (на урoвне рoста челoвека скoрoсть ветра ниже в 1.5-2 раза). Если метеoстанция нахoдится в гoрoде или в лесу, тo скoрoсть ветра занижена на 2-4 м/с пo сравнению с oткрытым местoм. Скoрoсть ветра над акватoриями крупных рек и oзёр, а также на вершинах хoлмoв на 2-5 м/с выше, чем в oбычных услoвиях.
Атмoсфернoе давление в разных тoчках местнoсти мoжет значительнo oтличаться oт давления на метеoстанции, в зависимoсти oт услoвий рельефа (при пoдъёме на 10 м давление пoнижается примернo на 1 мм рт.ст.).